| time (UTC) | temp F | wind direction | speed MPH | gust MPH | rain 1hr in | rain 24hr in | rain mn in | humidity % | barometer mb |
| 20260506080254 | 67 | 221 | 1.0 | 5.0 | 0.00 | 0.00 | 0.00 | 67 | 1007.3 |
| 20260506073257 | 68 | 212 | 2.0 | 6.0 | 0.00 | 0.00 | 0.00 | 65 | 1007.2 |
| 20260506073248 | 68 | 241 | 1.0 | 5.0 | 0.00 | 0.00 | 0.00 | 65 | 1007.2 |
| 20260506072233 | 68 | 193 | 3.0 | 6.0 | 0.00 | 0.00 | 0.00 | 65 | 1007.3 |
| 20260506072013 | 68 | 306 | 1.0 | 4.0 | 0.00 | 0.00 | 0.00 | 65 | 1007.3 |
| 20260506071234 | 68 | 283 | 1.0 | 2.0 | 0.00 | 0.00 | 0.00 | 65 | 1007.4 |
| 20260506071013 | 68 | 217 | 1.0 | 5.0 | 0.00 | 0.00 | 0.00 | 64 | 1007.4 |
| 20260506070230 | 68 | 159 | 2.0 | 6.0 | 0.00 | 0.00 | 0.00 | 64 | 1007.5 |
| 20260506062222 | 69 | 223 | 1.0 | 4.0 | 0.00 | 0.00 | 0.00 | 62 | 1007.9 |
| 20260506062002 | 69 | 214 | 1.0 | 6.0 | 0.00 | 0.00 | 0.00 | 62 | 1007.9 |
| 20260506061224 | 69 | 207 | 3.0 | 6.0 | 0.00 | 0.00 | 0.00 | 62 | 1007.9 |
| 20260506060722 | 69 | 227 | 2.0 | 6.0 | 0.00 | 0.00 | 0.00 | 61 | 1007.9 |
| 20260506060220 | 70 | 220 | 1.0 | 4.0 | 0.00 | 0.00 | 0.00 | 61 | 1007.9 |
| 20260506051204 | 71 | 240 | 3.0 | 6.0 | 0.00 | 0.00 | 0.00 | 58 | 1008.2 |
| 20260506050946 | 71 | 197 | 2.0 | 6.0 | 0.00 | 0.00 | 0.00 | 58 | 1008.2 |
| 20260506050204 | 71 | 262 | 2.0 | 6.0 | 0.00 | 0.00 | 0.00 | 58 | 1008.3 |
| 20260506044702 | 70 | 244 | 2.0 | 5.0 | 0.00 | 0.00 | 0.00 | 59 | 1008.3 |
| 20260506044203 | 71 | 203 | 2.0 | 4.0 | 0.00 | 0.00 | 0.00 | 58 | 1008.3 |
| 20260506043702 | 70 | 231 | 2.0 | 5.0 | 0.00 | 0.00 | 0.00 | 58 | 1008.3 |
| 20260506043202 | 71 | 157 | 3.0 | 5.0 | 0.00 | 0.00 | 0.00 | 57 | 1008.3 |
| 20260506042702 | 71 | 219 | 1.0 | 7.0 | 0.00 | 0.00 | 0.00 | 57 | 1008.3 |
| 20260506042203 | 71 | 89 | 1.0 | 7.0 | 0.00 | 0.00 | 0.00 | 57 | 1008.3 |
| 20260506041702 | 71 | 258 | 2.0 | 5.0 | 0.00 | 0.00 | 0.00 | 56 | 1008.3 |
| 20260506041202 | 71 | 223 | 2.0 | 9.0 | 0.00 | 0.00 | 0.00 | 56 | 1008.3 |
| 20260506040704 | 71 | 204 | 3.0 | 9.0 | 0.00 | 0.00 | 0.00 | 56 | 1008.3 |
| 20260506040202 | 71 | 240 | 4.0 | 9.0 | 0.00 | 0.00 | 0.00 | 56 | 1008.4 |
| 20260506035701 | 71 | 0 | 1.0 | 7.0 | 0.00 | 0.00 | 0.00 | 55 | 1008.3 |
| 20260506035203 | 71 | 230 | 2.0 | 6.0 | 0.00 | 0.00 | 0.00 | 55 | 1008.2 |
| 20260506034701 | 71 | 237 | 2.0 | 9.0 | 0.00 | 0.00 | 0.00 | 55 | 1008.2 |
| 20260506034154 | 71 | 200 | 2.0 | 9.0 | 0.00 | 0.00 | 0.00 | 55 | 1008.3 |
| 20260506033656 | 71 | 241 | 2.0 | 9.0 | 0.00 | 0.00 | 0.00 | 55 | 1008.2 |
| 20260506033155 | 71 | 213 | 2.0 | 4.0 | 0.00 | 0.00 | 0.00 | 55 | 1008.3 |
| 20260506032655 | 71 | 243 | 1.0 | 4.0 | 0.00 | 0.00 | 0.00 | 55 | 1008.3 |
| 20260506032156 | 71 | 192 | 2.0 | 4.0 | 0.00 | 0.00 | 0.00 | 54 | 1008.3 |
| 20260506031933 | 71 | 269 | 1.0 | 4.0 | 0.00 | 0.00 | 0.00 | 54 | 1008.4 |
| 20260506031151 | 71 | 247 | 1.0 | 6.0 | 0.00 | 0.00 | 0.00 | 54 | 1008.4 |
| 20260506030650 | 71 | 44 | 2.0 | 6.0 | 0.00 | 0.00 | 0.00 | 53 | 1008.2 |
| 20260506030149 | 71 | 217 | 1.0 | 6.0 | 0.00 | 0.00 | 0.00 | 52 | 1008.2 |
| 20260506025649 | 71 | 200 | 2.0 | 6.0 | 0.00 | 0.00 | 0.00 | 52 | 1008.3 |
| 20260506025149 | 71 | 230 | 3.0 | 6.0 | 0.00 | 0.00 | 0.00 | 51 | 1008.2 |
| 20260506024715 | 71 | 173 | 2.0 | 6.0 | 0.00 | 0.00 | 0.00 | 51 | 1008.2 |
| 20260506024705 | 71 | 231 | 2.0 | 5.0 | 0.00 | 0.00 | 0.00 | 51 | 1008.2 |
| 20260506023930 | 72 | 151 | 1.0 | 7.0 | 0.00 | 0.00 | 0.00 | 51 | 1008.3 |
| 20260506023427 | 72 | 138 | 2.0 | 7.0 | 0.00 | 0.00 | 0.00 | 50 | 1008.2 |
| 20260506022649 | 72 | 220 | 1.0 | 4.0 | 0.00 | 0.00 | 0.00 | 50 | 1008.4 |
| 20260506022148 | 72 | 212 | 2.0 | 4.0 | 0.00 | 0.00 | 0.00 | 49 | 1008.4 |
| 20260506021926 | 72 | 197 | 1.0 | 6.0 | 0.00 | 0.00 | 0.00 | 49 | 1008.3 |
| 20260506021148 | 72 | 228 | 3.0 | 6.0 | 0.00 | 0.00 | 0.00 | 48 | 1008.3 |
| 20260506020648 | 72 | 235 | 1.0 | 10.0 | 0.00 | 0.00 | 0.00 | 47 | 1008.4 |
| 20260506020149 | 72 | 212 | 2.0 | 10.0 | 0.00 | 0.00 | 0.00 | 46 | 1008.3 |
| 20260506015929 | 72 | 202 | 2.0 | 4.0 | 0.00 | 0.00 | 0.00 | 46 | 1008.3 |
| 20260506015428 | 72 | 216 | 1.0 | 2.0 | 0.00 | 0.00 | 0.00 | 47 | 1008.2 |
| 20260506014649 | 72 | 179 | 1.0 | 5.0 | 0.00 | 0.00 | 0.00 | 46 | 1008.2 |
| 20260506014147 | 73 | 192 | 1.0 | 5.0 | 0.00 | 0.00 | 0.00 | 46 | 1008.1 |
| 20260506013647 | 73 | 190 | 1.0 | 6.0 | 0.00 | 0.00 | 0.00 | 45 | 1008.2 |
| 20260506013148 | 73 | 179 | 2.0 | 6.0 | 0.00 | 0.00 | 0.00 | 45 | 1008.2 |
| 20260506012647 | 73 | 257 | 1.0 | 7.0 | 0.00 | 0.00 | 0.00 | 44 | 1008.1 |
| 20260506012147 | 73 | 0 | 2.0 | 7.0 | 0.00 | 0.00 | 0.00 | 44 | 1008.1 |
| 20260506011926 | 73 | 223 | 2.0 | 5.0 | 0.00 | 0.00 | 0.00 | 43 | 1007.9 |
| 20260506011427 | 73 | 233 | 2.0 | 4.0 | 0.00 | 0.00 | 0.00 | 43 | 1007.9 |
| 20260506010647 | 74 | 213 | 1.0 | 4.0 | 0.00 | 0.00 | 0.00 | 42 | 1007.9 |
| 20260506010149 | 74 | 180 | 1.0 | 4.0 | 0.00 | 0.00 | 0.00 | 42 | 1007.9 |
| 20260506005648 | 74 | 203 | 1.0 | 4.0 | 0.00 | 0.00 | 0.00 | 42 | 1007.8 |
| 20260506005148 | 74 | 230 | 2.0 | 5.0 | 0.00 | 0.00 | 0.00 | 42 | 1007.8 |
| 20260506004646 | 75 | 250 | 2.0 | 5.0 | 0.00 | 0.00 | 0.00 | 40 | 1007.6 |
| 20260506004147 | 75 | 203 | 2.0 | 4.0 | 0.00 | 0.00 | 0.00 | 40 | 1007.6 |
| 20260506003647 | 75 | 212 | 2.0 | 4.0 | 0.00 | 0.00 | 0.00 | 40 | 1007.4 |
| 20260506003147 | 75 | 261 | 2.0 | 4.0 | 0.00 | 0.00 | 0.00 | 39 | 1007.3 |
| 20260506002646 | 75 | 223 | 1.0 | 7.0 | 0.00 | 0.00 | 0.00 | 39 | 1007.4 |
| 20260506002146 | 75 | 259 | 1.0 | 7.0 | 0.00 | 0.00 | 0.00 | 39 | 1007.3 |
| 20260506001927 | 76 | 220 | 2.0 | 4.0 | 0.00 | 0.00 | 0.00 | 38 | 1007.4 |
| 20260506001145 | 76 | 248 | 1.0 | 4.0 | 0.00 | 0.00 | 0.00 | 38 | 1007.3 |
| 20260506000647 | 76 | 216 | 2.0 | 4.0 | 0.00 | 0.00 | 0.00 | 37 | 1007.3 |
| 20260506000145 | 76 | 190 | 2.0 | 4.0 | 0.00 | 0.00 | 0.00 | 37 | 1007.3 |
| 20260505235648 | 77 | 234 | 2.0 | 3.0 | 0.00 | 0.00 | 0.00 | 36 | 1007.1 |
| 20260505235145 | 77 | 281 | 1.0 | 6.0 | 0.00 | 0.00 | 0.00 | 36 | 1007.1 |
| 20260505234645 | 77 | 212 | 3.0 | 10.0 | 0.00 | 0.00 | 0.00 | 34 | 1007.1 |
| 20260505234146 | 78 | 217 | 2.0 | 10.0 | 0.00 | 0.00 | 0.00 | 35 | 1007.1 |
| 20260505233645 | 78 | 206 | 4.0 | 10.0 | 0.00 | 0.00 | 0.00 | 35 | 1007.1 |
| 20260505233144 | 78 | 237 | 2.0 | 7.0 | 0.00 | 0.00 | 0.00 | 35 | 1007.1 |
| 20260505232644 | 78 | 230 | 2.0 | 7.0 | 0.00 | 0.00 | 0.00 | 35 | 1007.0 |
| 20260505232144 | 78 | 240 | 2.0 | 6.0 | 0.00 | 0.00 | 0.00 | 35 | 1007.0 |
| 20260505231646 | 78 | 228 | 3.0 | 6.0 | 0.00 | 0.00 | 0.00 | 35 | 1007.0 |
| 20260505231423 | 78 | 134 | 1.0 | 5.0 | 0.00 | 0.00 | 0.00 | 35 | 1007.1 |
| 20260505230644 | 79 | 220 | 2.0 | 6.0 | 0.00 | 0.00 | 0.00 | 34 | 1007.2 |
| 20260505230425 | 79 | 171 | 1.0 | 13.0 | 0.00 | 0.00 | 0.00 | 34 | 1007.1 |
| 20260505225923 | 80 | 320 | 3.0 | 13.0 | 0.00 | 0.00 | 0.00 | 33 | 1007.1 |
| 20260505225425 | 80 | 206 | 3.0 | 13.0 | 0.00 | 0.00 | 0.00 | 32 | 1007.3 |
| 20260505224645 | 80 | 195 | 3.0 | 9.0 | 0.00 | 0.00 | 0.00 | 33 | 1007.2 |
| 20260505224411 | 80 | 197 | 3.0 | 9.0 | 0.00 | 0.00 | 0.00 | 32 | 1007.1 |
| 20260505223633 | 80 | 192 | 3.0 | 6.0 | 0.00 | 0.00 | 0.00 | 33 | 1007.1 |
| 20260505223411 | 80 | 247 | 1.0 | 6.0 | 0.00 | 0.00 | 0.00 | 32 | 1007.2 |
| 20260505222631 | 80 | 265 | 2.0 | 6.0 | 0.00 | 0.00 | 0.00 | 33 | 1007.2 |
| 20260505222133 | 80 | 11 | 2.0 | 7.0 | 0.00 | 0.00 | 0.00 | 32 | 1007.1 |
| 20260505221631 | 80 | 210 | 3.0 | 7.0 | 0.00 | 0.00 | 0.00 | 32 | 1007.0 |
| 20260505221130 | 80 | 309 | 4.0 | 7.0 | 0.00 | 0.00 | 0.00 | 33 | 1007.1 |
| 20260505220629 | 81 | 258 | 2.0 | 5.0 | 0.00 | 0.00 | 0.00 | 34 | 1007.0 |
| 20260505220127 | 81 | 213 | 1.0 | 11.0 | 0.00 | 0.00 | 0.00 | 32 | 1006.9 |
| 20260505215626 | 82 | 228 | 2.0 | 15.0 | 0.00 | 0.00 | 0.00 | 32 | 1006.9 |
| 20260505215127 | 82 | 221 | 5.0 | 15.0 | 0.00 | 0.00 | 0.00 | 31 | 1007.0 |
| 20260505214625 | 82 | 231 | 3.0 | 11.0 | 0.00 | 0.00 | 0.00 | 31 | 1007.0 |
| 20260505214127 | 82 | 241 | 4.0 | 15.0 | 0.00 | 0.00 | 0.00 | 31 | 1006.9 |
| 20260505213624 | 82 | 248 | 4.0 | 15.0 | 0.00 | 0.00 | 0.00 | 32 | 1006.9 |
| 20260505213122 | 82 | 230 | 4.0 | 13.0 | 0.00 | 0.00 | 0.00 | 32 | 1006.9 |
| 20260505212858 | 82 | 259 | 2.0 | 7.0 | 0.00 | 0.00 | 0.00 | 33 | 1006.9 |
| 20260505212120 | 82 | 179 | 3.0 | 10.0 | 0.00 | 0.00 | 0.00 | 33 | 1006.9 |
| 20260505211619 | 82 | 107 | 2.0 | 10.0 | 0.00 | 0.00 | 0.00 | 33 | 1007.0 |
| 20260505211358 | 82 | 219 | 4.0 | 11.0 | 0.00 | 0.00 | 0.00 | 32 | 1006.8 |
| 20260505210616 | 83 | 243 | 5.0 | 12.0 | 0.00 | 0.00 | 0.00 | 31 | 1006.8 |
| 20260505210116 | 83 | 251 | 3.0 | 12.0 | 0.00 | 0.00 | 0.00 | 31 | 1006.8 |
| 20260505205616 | 83 | 230 | 3.0 | 10.0 | 0.00 | 0.00 | 0.00 | 33 | 1006.9 |
| 20260505205118 | 83 | 216 | 2.0 | 11.0 | 0.00 | 0.00 | 0.00 | 34 | 1006.8 |
| 20260505204616 | 83 | 334 | 2.0 | 12.0 | 0.00 | 0.00 | 0.00 | 35 | 1006.8 |
| 20260505204113 | 83 | 262 | 4.0 | 12.0 | 0.00 | 0.00 | 0.00 | 33 | 1006.8 |
| 20260505203612 | 83 | 245 | 2.0 | 7.0 | 0.00 | 0.00 | 0.00 | 34 | 1006.8 |
| 20260505203112 | 83 | 252 | 3.0 | 11.0 | 0.00 | 0.00 | 0.00 | 33 | 1006.7 |
| 20260505202610 | 83 | 86 | 4.0 | 14.0 | 0.00 | 0.00 | 0.00 | 33 | 1006.8 |
| 20260505202110 | 84 | 223 | 4.0 | 14.0 | 0.00 | 0.00 | 0.00 | 32 | 1007.0 |
| 20260505201850 | 84 | 230 | 2.0 | 11.0 | 0.00 | 0.00 | 0.00 | 32 | 1006.8 |
| 20260505201110 | 84 | 233 | 2.0 | 16.0 | 0.00 | 0.00 | 0.00 | 33 | 1006.8 |
| 20260505200612 | 84 | 241 | 5.0 | 16.0 | 0.00 | 0.00 | 0.00 | 31 | 1006.9 |
| 20260505200111 | 84 | 168 | 5.0 | 10.0 | 0.00 | 0.00 | 0.00 | 30 | 1006.9 |
| 20260505195608 | 84 | 207 | 4.0 | 11.0 | 0.00 | 0.00 | 0.00 | 31 | 1006.9 |
| 20260505195107 | 85 | 155 | 4.0 | 11.0 | 0.00 | 0.00 | 0.00 | 30 | 1006.9 |
| 20260505194608 | 85 | 199 | 2.0 | 14.0 | 0.00 | 0.00 | 0.00 | 30 | 1006.9 |
| 20260505194106 | 85 | 130 | 6.0 | 14.0 | 0.00 | 0.00 | 0.00 | 28 | 1007.1 |
| 20260505193604 | 85 | 96 | 3.0 | 11.0 | 0.00 | 0.00 | 0.00 | 32 | 1007.1 |
| 20260505193103 | 85 | 250 | 3.0 | 13.0 | 0.00 | 0.00 | 0.00 | 31 | 1007.3 |
| 20260505192604 | 85 | 134 | 6.0 | 13.0 | 0.00 | 0.00 | 0.00 | 28 | 1007.0 |
| 20260505192102 | 85 | 235 | 5.0 | 13.0 | 0.00 | 0.00 | 0.00 | 29 | 1007.4 |
| 20260505191841 | 85 | 213 | 4.0 | 13.0 | 0.00 | 0.00 | 0.00 | 30 | 1007.4 |
| 20260505191102 | 86 | 196 | 4.0 | 11.0 | 0.00 | 0.00 | 0.00 | 29 | 1007.4 |
| 20260505190601 | 85 | 193 | 3.0 | 10.0 | 0.00 | 0.00 | 0.00 | 31 | 1007.4 |
| 20260505190343 | 86 | 111 | 3.0 | 7.0 | 0.00 | 0.00 | 0.00 | 32 | 1007.6 |
| 20260505185600 | 87 | 223 | 3.0 | 9.0 | 0.00 | 0.00 | 0.00 | 32 | 1007.8 |
| 20260505185100 | 86 | 261 | 3.0 | 10.0 | 0.00 | 0.00 | 0.00 | 30 | 1007.7 |
| 20260505184603 | 86 | 248 | 4.0 | 10.0 | 0.00 | 0.00 | 0.00 | 31 | 1007.9 |
| 20260505184056 | 85 | 281 | 4.0 | 10.0 | 0.00 | 0.00 | 0.00 | 30 | 1007.9 |
| 20260505183555 | 85 | 261 | 5.0 | 10.0 | 0.00 | 0.00 | 0.00 | 30 | 1008.0 |
| 20260505183056 | 85 | 259 | 5.0 | 12.0 | 0.00 | 0.00 | 0.00 | 29 | 1008.3 |
| 20260505182554 | 86 | 237 | 4.0 | 12.0 | 0.00 | 0.00 | 0.00 | 30 | 1008.1 |
| 20260505182054 | 86 | 216 | 2.0 | 7.0 | 0.00 | 0.00 | 0.00 | 34 | 1008.2 |
| 20260505181554 | 86 | 185 | 4.0 | 11.0 | 0.00 | 0.00 | 0.00 | 30 | 1008.2 |
| 20260505181054 | 86 | 314 | 4.0 | 11.0 | 0.00 | 0.00 | 0.00 | 31 | 1008.4 |
| 20260505180551 | 85 | 241 | 2.0 | 9.0 | 0.00 | 0.00 | 0.00 | 32 | 1008.4 |
| 20260505180050 | 85 | 271 | 4.0 | 10.0 | 0.00 | 0.00 | 0.00 | 31 | 1008.4 |
| 20260505175547 | 85 | 117 | 5.0 | 10.0 | 0.00 | 0.00 | 0.00 | 30 | 1008.4 |
| 20260505175326 | 85 | 219 | 2.0 | 10.0 | 0.00 | 0.00 | 0.00 | 33 | 1008.5 |
| 20260505174548 | 86 | 133 | 4.0 | 10.0 | 0.00 | 0.00 | 0.00 | 32 | 1008.5 |
| 20260505174047 | 86 | 227 | 3.0 | 9.0 | 0.00 | 0.00 | 0.00 | 32 | 1008.6 |
| 20260505173824 | 85 | 220 | 4.0 | 9.0 | 0.00 | 0.00 | 0.00 | 31 | 1008.6 |
| 20260505173044 | 86 | 341 | 3.0 | 9.0 | 0.00 | 0.00 | 0.00 | 32 | 1008.7 |
| 20260505172543 | 87 | 257 | 3.0 | 7.0 | 0.00 | 0.00 | 0.00 | 33 | 1008.7 |
| 20260505172045 | 86 | 272 | 2.0 | 6.0 | 0.00 | 0.00 | 0.00 | 36 | 1008.6 |
| 20260505171542 | 85 | 234 | 2.0 | 9.0 | 0.00 | 0.00 | 0.00 | 32 | 1008.7 |
| 20260505171317 | 85 | 212 | 2.0 | 9.0 | 0.00 | 0.00 | 0.00 | 34 | 1008.7 |
| 20260505170846 | 85 | 317 | 4.0 | 14.0 | 0.00 | 0.00 | 0.00 | 34 | 1008.8 |
| 20260505170557 | 85 | 135 | 3.0 | 14.0 | 0.00 | 0.00 | 0.00 | 33 | 1008.9 |
| 20260505165539 | 85 | 233 | 5.0 | 10.0 | 0.00 | 0.00 | 0.00 | 33 | 1008.9 |
| 20260505165037 | 85 | 199 | 2.0 | 9.0 | 0.00 | 0.00 | 0.00 | 37 | 1008.9 |
| 20260505164537 | 85 | 224 | 3.0 | 7.0 | 0.00 | 0.00 | 0.00 | 34 | 1009.0 |
| 20260505164037 | 85 | 195 | 3.0 | 6.0 | 0.00 | 0.00 | 0.00 | 37 | 1009.1 |
| 20260505163538 | 85 | 314 | 2.0 | 6.0 | 0.00 | 0.00 | 0.00 | 36 | 1009.2 |
| 20260505163037 | 85 | 265 | 3.0 | 6.0 | 0.00 | 0.00 | 0.00 | 36 | 1009.3 |
| 20260505162535 | 85 | 106 | 2.0 | 9.0 | 0.00 | 0.00 | 0.00 | 38 | 1009.3 |
| 20260505162037 | 84 | 272 | 3.0 | 9.0 | 0.00 | 0.00 | 0.00 | 37 | 1009.5 |
| 20260505161536 | 84 | 234 | 2.0 | 9.0 | 0.00 | 0.00 | 0.00 | 36 | 1009.7 |
| 20260505161035 | 85 | 176 | 2.0 | 5.0 | 0.00 | 0.00 | 0.00 | 36 | 1009.7 |
| 20260505160904 | 84 | 214 | 2.0 | 6.0 | 0.00 | 0.00 | 0.00 | 38 | 1009.9 |
| 20260505160613 | 85 | 278 | 1.0 | 5.0 | 0.00 | 0.00 | 0.00 | 39 | 1009.7 |
| 20260505153034 | 83 | 192 | 2.0 | 5.0 | 0.00 | 0.00 | 0.00 | 40 | 1009.9 |
| 20260505152534 | 83 | 168 | 2.0 | 5.0 | 0.00 | 0.00 | 0.00 | 40 | 1009.9 |
| 20260505152313 | 83 | 271 | 2.0 | 5.0 | 0.00 | 0.00 | 0.00 | 40 | 1009.9 |
| 20260505151535 | 82 | 59 | 1.0 | 7.0 | 0.00 | 0.00 | 0.00 | 45 | 1010.0 |
| 20260505151033 | 82 | 10 | 1.0 | 7.0 | 0.00 | 0.00 | 0.00 | 43 | 1009.9 |
| 20260505150534 | 83 | 237 | 2.0 | 4.0 | 0.00 | 0.00 | 0.00 | 39 | 1009.9 |
| 20260505140530 | 77 | 250 | 1.0 | 5.0 | 0.00 | 0.00 | 0.00 | 48 | 1010.1 |
| 20260505125018 | 71 | 209 | 1.0 | 5.0 | 0.00 | 0.00 | 0.00 | 52 | 1010.2 |
| 20260505124518 | 71 | 243 | 0.0 | 5.0 | 0.00 | 0.00 | 0.00 | 53 | 1010.3 |
| 20260505124020 | 71 | 354 | 1.0 | 6.0 | 0.00 | 0.00 | 0.00 | 53 | 1010.4 |
| 20260505123518 | 70 | 337 | 0.0 | 6.0 | 0.00 | 0.00 | 0.00 | 54 | 1010.3 |
| 20260505123020 | 69 | 288 | 1.0 | 5.0 | 0.00 | 0.00 | 0.00 | 55 | 1010.2 |
| 20260505122518 | 68 | 245 | 1.0 | 4.0 | 0.00 | 0.00 | 0.00 | 56 | 1010.4 |
| 20260505122013 | 68 | 321 | 2.0 | 4.0 | 0.00 | 0.00 | 0.00 | 54 | 1010.2 |
| 20260505121511 | 67 | 209 | 2.0 | 6.0 | 0.00 | 0.00 | 0.00 | 56 | 1010.2 |
| 20260505121009 | 67 | 243 | 1.0 | 6.0 | 0.00 | 0.00 | 0.00 | 56 | 1010.3 |
| 20260505120509 | 66 | 282 | 2.0 | 6.0 | 0.00 | 0.00 | 0.00 | 58 | 1010.3 |
| 20260505120009 | 66 | 155 | 2.0 | 6.0 | 0.00 | 0.00 | 0.00 | 57 | 1010.2 |
| 20260505115509 | 66 | 288 | 2.0 | 5.0 | 0.00 | 0.00 | 0.00 | 59 | 1010.2 |
| 20260505115006 | 65 | 193 | 2.0 | 5.0 | 0.00 | 0.00 | 0.00 | 58 | 1009.9 |
| 20260505114504 | 64 | 251 | 1.0 | 5.0 | 0.00 | 0.00 | 0.00 | 61 | 1010.0 |
| 20260505114029 | 63 | 226 | 1.0 | 3.0 | 0.00 | 0.00 | 0.00 | 61 | 1009.9 |
| 20260505114020 | 64 | 275 | 1.0 | 3.0 | 0.00 | 0.00 | 0.00 | 60 | 1009.9 |
| 20260505113004 | 62 | 224 | 1.0 | 4.0 | 0.00 | 0.00 | 0.00 | 64 | 1009.9 |
| 20260505112502 | 61 | 223 | 1.0 | 4.0 | 0.00 | 0.00 | 0.00 | 64 | 1009.8 |
| 20260505112003 | 61 | 200 | 2.0 | 4.0 | 0.00 | 0.00 | 0.00 | 64 | 1009.8 |
| 20260505111503 | 60 | 241 | 2.0 | 3.0 | 0.00 | 0.00 | 0.00 | 64 | 1009.8 |
| 20260505111003 | 60 | 262 | 2.0 | 4.0 | 0.00 | 0.00 | 0.00 | 64 | 1009.8 |
| 20260505110502 | 60 | 228 | 1.0 | 5.0 | 0.00 | 0.00 | 0.00 | 64 | 1009.6 |
| 20260505102004 | 59 | 235 | 1.0 | 3.0 | 0.00 | 0.00 | 0.00 | 67 | 1009.2 |
| 20260505101454 | 58 | 245 | 1.0 | 3.0 | 0.00 | 0.00 | 0.00 | 67 | 1009.2 |
| 20260505100955 | 58 | 245 | 2.0 | 3.0 | 0.00 | 0.00 | 0.00 | 67 | 1009.2 |
| 20260505100450 | 58 | 210 | 1.0 | 4.0 | 0.00 | 0.00 | 0.00 | 68 | 1009.2 |
| 20260505095951 | 58 | 210 | 0.0 | 4.0 | 0.00 | 0.00 | 0.00 | 68 | 1009.2 |
| 20260505095508 | 58 | 283 | 1.0 | 3.0 | 0.00 | 0.00 | 0.00 | 68 | 1009.1 |
| 20260505095500 | 58 | 237 | 1.0 | 3.0 | 0.00 | 0.00 | 0.00 | 69 | 1009.2 |
| 20260505094438 | 58 | 219 | 1.0 | 3.0 | 0.00 | 0.00 | 0.00 | 69 | 1009.1 |
| 20260505093934 | 58 | 219 | 1.0 | 3.0 | 0.00 | 0.00 | 0.00 | 69 | 1009.0 |
| 20260505093433 | 58 | 231 | 1.0 | 3.0 | 0.00 | 0.00 | 0.00 | 70 | 1009.0 |
| 20260505092934 | 58 | 231 | 1.0 | 3.0 | 0.00 | 0.00 | 0.00 | 69 | 1009.0 |
| 20260505092432 | 58 | 243 | 2.0 | 3.0 | 0.00 | 0.00 | 0.00 | 69 | 1009.1 |
| 20260505091932 | 58 | 217 | 1.0 | 3.0 | 0.00 | 0.00 | 0.00 | 69 | 1009.0 |
| 20260505091431 | 58 | 217 | 2.0 | 3.0 | 0.00 | 0.00 | 0.00 | 69 | 1008.9 |
| 20260505090932 | 58 | 213 | 2.0 | 3.0 | 0.00 | 0.00 | 0.00 | 70 | 1009.0 |
| 20260505090712 | 58 | 216 | 1.0 | 4.0 | 0.00 | 0.00 | 0.00 | 70 | 1008.9 |
| 20260505085931 | 58 | 221 | 1.0 | 4.0 | 0.00 | 0.00 | 0.00 | 70 | 1008.8 |
| 20260505085432 | 57 | 224 | 1.0 | 2.0 | 0.00 | 0.00 | 0.00 | 71 | 1008.8 |
| 20260505084931 | 57 | 223 | 0.0 | 2.0 | 0.00 | 0.00 | 0.00 | 71 | 1008.8 |
| 20260505084430 | 57 | 224 | 1.0 | 2.0 | 0.00 | 0.00 | 0.00 | 71 | 1008.9 |
| 20260505083930 | 57 | 224 | 0.0 | 4.0 | 0.00 | 0.00 | 0.00 | 71 | 1008.9 |
| 20260505083432 | 58 | 224 | 0.0 | 4.0 | 0.00 | 0.00 | 0.00 | 71 | 1009.0 |
| 20260505082930 | 58 | 243 | 0.0 | 2.0 | 0.00 | 0.00 | 0.00 | 71 | 1008.9 |
| 20260505082430 | 57 | 247 | 1.0 | 2.0 | 0.00 | 0.00 | 0.00 | 73 | 1009.0 |
| 20260505082204 | 57 | 247 | 1.0 | 2.0 | 0.00 | 0.00 | 0.00 | 73 | 1008.9 |
| 20260505081425 | 57 | 247 | 1.0 | 2.0 | 0.00 | 0.00 | 0.00 | 74 | 1008.8 |
| 20260505080924 | 57 | 247 | 1.0 | 2.0 | 0.00 | 0.00 | 0.00 | 74 | 1008.8 |